GW4151 Weather Reports


time (UTC)temp
F
wind
direction
speed
knots
gust
knots
rain 1hr
in
rain 24hr
in
rain mn
in
humidity
%
barometer
mb
20260905081114 69 348 0.0 0.0 0.00 0.00 0.00 99 992.8
20260905075613 69 106 0.0 0.9 0.00 0.00 0.00 99 992.9
20260905074108 69 32 0.0 2.6 0.00 0.00 0.00 99 992.7
20260905072604 69 240 0.0 0.0 0.00 0.00 0.00 99 993.1
20260905071103 69 131 0.0 0.9 0.00 0.00 0.00 99 992.8
20260905065557 69 3 1.7 6.1 0.00 0.00 0.00 99 993.1
20260905064054 68 151 0.0 0.9 0.00 0.00 0.00 99 993.4
20260905062550 69 194 0.0 0.0 0.00 0.00 0.00 99 993.4
20260905061050 69 141 0.0 0.9 0.00 0.00 0.00 99 993.1
20260905055546 69 183 0.0 0.0 0.00 0.00 0.00 99 993.1
20260905054044 69 180 0.0 0.0 0.00 0.00 0.00 99 993.3
20260905052544 69 151 0.0 0.0 0.00 0.00 0.00 99 993.4
20260905051044 69 151 0.0 0.0 0.00 0.00 0.00 99 993.6
20260905045542 70 151 0.0 0.0 0.00 0.00 0.00 99 993.5
20260905044038 69 151 0.0 0.0 0.00 0.00 0.00 99 993.4
20260905042537 69 154 0.0 0.0 0.00 0.00 0.00 99 993.2
20260905041035 70 154 0.0 0.0 0.00 0.00 0.00 99 993.2
20260905035534 70 153 0.0 0.0 0.00 2.06 2.06 99 993.7
20260905034032 70 170 0.0 0.0 0.00 2.06 2.06 99 993.8
20260905032529 70 171 0.0 0.0 0.00 2.06 2.06 99 994.2
20260905031024 71 171 0.0 0.0 0.00 2.06 2.06 99 994.3
20260905025521 71 176 0.0 0.0 0.00 2.06 2.06 99 994.5
20260905024019 71 176 0.0 0.0 0.00 2.06 2.06 98 994.4
20260905022515 71 190 0.0 0.0 0.00 2.06 2.06 98 994.4
20260905021010 72 194 0.0 0.0 0.00 2.06 2.06 97 994.2
20260905015509 72 191 0.0 0.0 0.00 2.06 2.06 97 994.2
20260905014005 72 176 0.0 0.0 0.00 2.06 2.06 97 994.1
20260905012503 72 176 0.0 0.0 0.00 2.06 2.06 97 994.2
20260905011003 72 166 0.0 0.0 0.00 2.06 2.06 97 994.3
20260905005500 73 168 0.0 0.0 0.00 2.06 2.06 96 993.9
20260905003957 73 173 0.0 0.0 0.00 2.06 2.06 95 993.9
20260905002455 74 176 0.0 0.0 0.00 2.06 2.06 94 993.7
20260905000950 74 184 0.0 0.0 0.00 2.06 2.06 93 993.7
20260904235449 75 162 0.0 0.0 0.00 2.06 2.06 91 993.4
20260904233945 77 187 0.0 0.0 0.00 2.06 2.06 89 993.7
20260904232444 77 176 0.9 1.7 0.00 2.06 2.06 88 993.4
20260904230942 78 71 1.7 1.7 0.00 2.06 2.06 87 993.5
20260904225440 78 70 2.6 2.6 0.00 2.06 2.06 86 993.6
20260904223935 78 135 1.7 2.6 0.00 2.06 2.06 84 993.5
20260904222432 79 285 1.7 2.6 0.00 2.06 2.06 83 993.5
20260904220928 78 138 0.9 1.7 0.00 2.06 2.06 84 993.2
20260904215424 79 176 0.0 1.7 0.00 2.06 2.06 82 993.3
20260904213920 78 184 0.0 1.7 0.00 2.06 2.06 84 993.1
20260904212416 80 148 0.9 1.7 0.00 2.06 2.06 83 993.2
20260904210913 78 153 0.9 3.5 0.00 2.06 2.06 85 993.3
20260904205410 77 13 1.7 2.6 0.00 2.06 2.06 88 993.3
20260904203909 76 182 1.7 3.5 0.00 2.06 2.06 89 993.5
20260904202408 77 166 0.9 0.9 0.00 2.06 2.06 86 993.6
20260904200906 77 200 0.0 0.9 0.00 2.06 2.06 85 993.9
20260904195403 76 48 0.9 1.7 0.00 2.06 2.06 87 993.8
20260904193859 76 153 1.7 2.6 0.00 2.06 2.06 87 993.8
20260904192356 75 25 2.6 2.6 0.00 2.06 2.06 88 993.8
20260904190851 76 203 0.9 1.7 0.00 2.06 2.06 87 994.0
20260904185349 75 147 1.7 3.5 0.00 2.06 2.06 88 994.1
20260904183845 74 172 1.7 2.6 0.00 2.06 2.06 88 994.3
20260904182342 72 179 0.0 1.7 0.00 2.06 2.06 97 994.1
20260904180839 72 229 0.9 0.9 0.00 2.06 2.06 99 994.5
20260904175338 72 35 1.7 1.7 0.00 2.06 2.06 99 994.0
20260904173836 72 183 0.0 0.0 0.00 2.06 2.06 99 994.2
20260904172332 71 166 0.0 0.9 0.00 2.06 2.06 99 994.7
20260904170831 71 94 0.9 1.7 0.00 2.06 2.06 99 994.3
20260904165325 70 195 0.9 2.6 0.00 2.06 2.06 99 994.0
20260904163823 70 13 3.5 5.2 0.00 2.06 2.06 99 993.0
20260904162323 69 173 3.5 13.0 0.00 2.06 2.06 99 991.9
20260904160820 70 127 4.3 12.2 0.12 2.05 2.05 99 993.0
20260904155316 69 212 3.5 5.2 0.00 2.02 2.02 99 995.0
20260904153811 69 202 0.0 0.9 0.00 2.02 2.02 99 994.8
20260904152309 69 138 2.6 3.5 0.00 2.02 2.02 99 995.1
20260904150805 69 221 1.7 3.5 0.19 2.01 2.01 99 995.0
20260904145306 69 161 1.7 2.6 0.00 1.97 1.97 99 994.9
20260904143803 69 216 3.5 5.2 0.00 1.97 1.97 99 995.0
20260904142306 69 201 0.9 5.2 0.07 1.97 1.97 99 996.2
20260904140800 69 166 1.7 1.7 0.83 1.96 1.96 99 996.6
20260904135256 69 197 1.7 1.7 0.00 1.81 1.81 99 996.2
20260904133752 69 185 0.0 0.9 0.00 1.81 1.81 99 995.5
20260904132249 69 143 0.0 1.7 0.05 1.80 1.80 99 996.3
20260904130749 69 335 5.2 7.0 0.59 1.79 1.79 99 996.5
20260904125246 69 19 5.2 9.6 0.42 1.51 1.51 99 996.4
20260904123743 70 317 5.2 7.8 0.35 1.40 1.40 99 995.3
20260904122239 69 298 1.7 3.5 0.12 1.33 1.33 99 994.9
20260904120738 70 284 2.6 6.1 0.05 1.30 1.30 99 994.4
20260904115235 70 47 1.7 5.2 0.12 1.28 1.28 99 994.5
20260904113731 70 167 0.9 1.7 0.12 1.25 1.25 99 994.5
20260904112226 70 63 0.9 0.9 0.12 1.23 1.23 99 994.9
20260904110725 70 137 3.5 7.0 5.27 1.17 1.17 99 994.7
20260904105220 71 298 10.4 14.8 0.19 0.09 0.09 99 995.1
20260904103720 71 188 0.0 0.0 0.12 0.04 0.04 99 993.5
20260904102217 71 187 0.0 0.0 0.00 0.01 0.01 99 993.7
20260904100716 70 190 0.0 0.0 0.00 0.01 0.01 99 993.2
20260904095212 71 178 0.0 0.0 0.00 0.01 0.01 98 993.3
20260904093710 71 196 0.0 0.0 0.00 0.01 0.01 98 993.0
20260904092207 71 89 0.0 0.0 0.00 0.01 0.01 98 993.1
20260904090705 71 170 0.0 0.0 0.00 0.01 0.01 98 993.1
20260904085201 71 180 0.0 0.0 0.00 0.00 0.00 98 992.4
20260904083700 71 183 0.0 0.0 0.00 0.00 0.00 97 993.3
20260904082158 72 187 0.0 0.0 0.00 0.00 0.00 96 993.3